TimeCST,TemperatureF,Dew PointF,Humidity,Sea Level PressureIn,VisibilityMPH,Wind Direction,Wind SpeedMPH,Gust SpeedMPH,PrecipitationIn,Events,Conditions,WindDirDegrees,DateUTC
12:15 AM,44.6,23.0,43,29.85,10.0,West,8.1,-,N/A,,Clear,280,2012-11-25 06:15:00
12:35 AM,42.8,21.2,42,29.85,10.0,WNW,10.4,-,N/A,,Clear,300,2012-11-25 06:35:00
12:55 AM,41.0,21.2,45,29.85,10.0,WNW,8.1,-,N/A,,Clear,300,2012-11-25 06:55:00
1:15 AM,41.0,21.2,45,29.85,10.0,NW,9.2,-,N/A,,Clear,320,2012-11-25 07:15:00
1:35 AM,44.6,21.2,39,29.85,10.0,NW,11.5,-,N/A,,Clear,320,2012-11-25 07:35:00
1:55 AM,44.6,21.2,39,29.86,10.0,NNW,13.8,-,N/A,,Clear,340,2012-11-25 07:55:00
2:15 AM,44.6,21.2,39,29.87,10.0,North,12.7,-,N/A,,Clear,350,2012-11-25 08:15:00
2:35 AM,41.0,21.2,45,29.87,10.0,North,10.4,-,N/A,,Clear,360,2012-11-25 08:35:00
2:55 AM,39.2,21.2,49,29.88,10.0,North,10.4,-,N/A,,Clear,360,2012-11-25 08:55:00
3:15 AM,39.2,21.2,49,29.89,10.0,NNE,10.4,-,N/A,,Clear,20,2012-11-25 09:15:00
3:35 AM,39.2,19.4,45,29.89,10.0,NNE,8.1,-,N/A,,Clear,30,2012-11-25 09:35:00
3:55 AM,39.2,21.2,49,29.89,10.0,North,10.4,-,N/A,,Clear,10,2012-11-25 09:55:00
4:15 AM,35.6,19.4,52,29.90,10.0,North,5.8,-,N/A,,Clear,350,2012-11-25 10:15:00
4:35 AM,35.6,19.4,52,29.90,10.0,North,10.4,-,N/A,,Clear,350,2012-11-25 10:35:00
4:55 AM,35.6,19.4,52,29.90,10.0,North,9.2,-,N/A,,Clear,360,2012-11-25 10:55:00
5:15 AM,33.8,19.4,56,29.90,10.0,NNW,6.9,-,N/A,,Clear,340,2012-11-25 11:15:00
5:35 AM,33.8,19.4,56,29.91,10.0,NNW,8.1,-,N/A,,Clear,340,2012-11-25 11:35:00
5:55 AM,33.8,19.4,56,29.91,10.0,North,8.1,-,N/A,,Clear,350,2012-11-25 11:55:00
6:15 AM,32.0,19.4,60,29.90,10.0,North,10.4,-,N/A,,Clear,350,2012-11-25 12:15:00
6:35 AM,33.8,21.2,60,29.91,10.0,North,6.9,-,N/A,,Clear,350,2012-11-25 12:35:00
6:55 AM,35.6,21.2,56,29.92,10.0,North,8.1,-,N/A,,Clear,360,2012-11-25 12:55:00
7:15 AM,35.6,23.0,60,29.93,10.0,North,6.9,-,N/A,,Clear,360,2012-11-25 13:15:00
7:35 AM,37.4,24.8,60,29.93,10.0,North,8.1,-,N/A,,Clear,10,2012-11-25 13:35:00
7:55 AM,37.4,26.6,65,29.94,10.0,NNE,9.2,-,N/A,,Clear,20,2012-11-25 13:55:00
8:15 AM,39.2,24.8,56,29.95,10.0,North,11.5,-,N/A,,Clear,360,2012-11-25 14:15:00
8:35 AM,39.2,24.8,56,29.95,10.0,North,11.5,-,N/A,,Clear,350,2012-11-25 14:35:00
8:55 AM,41.0,26.6,57,29.96,10.0,North,15.0,-,N/A,,Clear,360,2012-11-25 14:55:00
9:15 AM,42.8,28.4,57,29.97,10.0,NNE,13.8,-,N/A,,Clear,20,2012-11-25 15:15:00
9:35 AM,44.6,28.4,53,29.97,10.0,NNE,15.0,-,N/A,,Clear,30,2012-11-25 15:35:00
9:55 AM,46.4,30.2,53,29.97,10.0,NNE,11.5,-,N/A,,Clear,30,2012-11-25 15:55:00
10:15 AM,48.2,30.2,50,29.97,10.0,NE,15.0,-,N/A,,Clear,50,2012-11-25 16:15:00
10:35 AM,50.0,30.2,47,29.97,10.0,NE,15.0,-,N/A,,Clear,50,2012-11-25 16:35:00
10:55 AM,51.8,32.0,47,29.97,10.0,ENE,15.0,19.6,N/A,,Clear,60,2012-11-25 16:55:00
11:15 AM,51.8,32.0,47,29.97,10.0,ENE,12.7,-,N/A,,Clear,70,2012-11-25 17:15:00
11:35 AM,51.8,32.0,47,29.97,10.0,ENE,12.7,-,N/A,,Clear,60,2012-11-25 17:35:00
11:55 AM,53.6,32.0,44,29.95,10.0,ENE,15.0,-,N/A,,Clear,60,2012-11-25 17:55:00
12:15 PM,53.6,32.0,44,29.94,10.0,NE,9.2,-,N/A,,Clear,50,2012-11-25 18:15:00
12:35 PM,53.6,32.0,44,29.93,10.0,ENE,13.8,-,N/A,,Clear,70,2012-11-25 18:35:00
12:55 PM,55.4,33.8,44,29.92,10.0,ENE,13.8,-,N/A,,Clear,60,2012-11-25 18:55:00
1:15 PM,55.4,33.8,44,29.92,10.0,NE,11.5,-,N/A,,Clear,50,2012-11-25 19:15:00
1:35 PM,55.4,32.0,41,29.91,10.0,ENE,10.4,-,N/A,,Clear,60,2012-11-25 19:35:00
1:55 PM,55.4,33.8,44,29.90,10.0,ENE,11.5,-,N/A,,Clear,60,2012-11-25 19:55:00
2:15 PM,55.4,33.8,44,29.90,10.0,ENE,9.2,18.4,N/A,,Clear,60,2012-11-25 20:15:00
2:35 PM,55.4,32.0,41,29.90,10.0,ENE,11.5,-,N/A,,Clear,70,2012-11-25 20:35:00
2:55 PM,55.4,32.0,41,29.89,10.0,ENE,11.5,-,N/A,,Clear,70,2012-11-25 20:55:00
3:15 PM,55.4,32.0,41,29.88,10.0,ENE,12.7,-,N/A,,Clear,60,2012-11-25 21:15:00
3:35 PM,55.4,32.0,41,29.88,10.0,ENE,11.5,-,N/A,,Clear,70,2012-11-25 21:35:00
3:55 PM,55.4,32.0,41,29.88,10.0,ENE,12.7,-,N/A,,Clear,70,2012-11-25 21:55:00
4:15 PM,55.4,32.0,41,29.89,10.0,East,12.7,-,N/A,,Clear,90,2012-11-25 22:15:00
4:35 PM,53.6,32.0,44,29.89,10.0,East,12.7,-,N/A,,Clear,80,2012-11-25 22:35:00
4:55 PM,51.8,30.2,44,29.89,10.0,East,10.4,-,N/A,,Clear,80,2012-11-25 22:55:00
5:15 PM,50.0,30.2,47,29.89,10.0,East,10.4,-,N/A,,Clear,80,2012-11-25 23:15:00
5:35 PM,46.4,30.2,53,29.89,10.0,East,10.4,-,N/A,,Clear,80,2012-11-25 23:35:00
5:55 PM,44.6,28.4,53,29.89,10.0,East,8.1,-,N/A,,Clear,80,2012-11-25 23:55:00
6:15 PM,42.8,28.4,57,29.90,10.0,ENE,8.1,-,N/A,,Clear,70,2012-11-26 00:15:00
6:35 PM,41.0,28.4,61,29.91,10.0,ENE,9.2,-,N/A,,Clear,60,2012-11-26 00:35:00
6:55 PM,41.0,28.4,61,29.91,10.0,ENE,10.4,-,N/A,,Clear,60,2012-11-26 00:55:00
7:15 PM,39.2,26.6,61,29.92,10.0,ENE,10.4,-,N/A,,Clear,70,2012-11-26 01:15:00
7:35 PM,39.2,26.6,61,29.93,10.0,ENE,9.2,-,N/A,,Clear,70,2012-11-26 01:35:00
7:55 PM,37.4,26.6,65,29.94,10.0,ENE,10.4,-,N/A,,Clear,60,2012-11-26 01:55:00
8:15 PM,37.4,26.6,65,29.95,10.0,NE,10.4,-,N/A,,Clear,50,2012-11-26 02:15:00
8:35 PM,37.4,26.6,65,29.97,10.0,NE,11.5,-,N/A,,Clear,50,2012-11-26 02:35:00
8:55 PM,37.4,26.6,65,29.97,10.0,NE,11.5,-,N/A,,Clear,50,2012-11-26 02:55:00
9:15 PM,35.6,24.8,65,29.98,10.0,NE,11.5,-,N/A,,Clear,50,2012-11-26 03:15:00
9:35 PM,35.6,24.8,65,29.99,10.0,NE,12.7,-,N/A,,Clear,50,2012-11-26 03:35:00
9:55 PM,35.6,24.8,65,29.99,10.0,NE,15.0,-,N/A,,Clear,50,2012-11-26 03:55:00
10:15 PM,35.6,24.8,65,30.01,10.0,NE,10.4,-,N/A,,Clear,40,2012-11-26 04:15:00
10:35 PM,35.6,23.0,60,30.01,10.0,NE,12.7,-,N/A,,Clear,50,2012-11-26 04:35:00
10:55 PM,33.8,23.0,65,30.01,10.0,NE,15.0,-,N/A,,Clear,50,2012-11-26 04:55:00
11:15 PM,33.8,23.0,65,30.02,10.0,NE,15.0,-,N/A,,Clear,40,2012-11-26 05:15:00
11:35 PM,33.8,23.0,65,30.02,10.0,NE,15.0,-,N/A,,Clear,50,2012-11-26 05:35:00
11:55 PM,32.0,23.0,69,30.02,10.0,NE,13.8,-,N/A,,Clear,50,2012-11-26 05:55:00